Year,Month,Day,Hour,Minute,Value (Times are PST for temperature in C)
2020,04,10,00,00,7.70
2020,04,10,00,01,7.70
2020,04,10,00,02,7.70
2020,04,10,00,03,7.60
2020,04,10,00,04,7.60
2020,04,10,00,05,7.60
2020,04,10,00,06,7.60
2020,04,10,00,07,7.60
2020,04,10,00,08,7.60
2020,04,10,00,09,7.50
2020,04,10,00,10,7.50
2020,04,10,00,11,7.50
2020,04,10,00,12,7.40
2020,04,10,00,13,7.40
2020,04,10,00,14,7.40
2020,04,10,00,15,7.40
2020,04,10,00,16,7.40
2020,04,10,00,17,7.40
2020,04,10,00,18,7.40
2020,04,10,00,19,7.40
2020,04,10,00,20,7.40
2020,04,10,00,21,7.40
2020,04,10,00,22,7.40
2020,04,10,00,23,7.40
2020,04,10,00,24,7.40
2020,04,10,00,25,7.30
2020,04,10,00,26,7.30
2020,04,10,00,27,7.30
2020,04,10,00,28,7.30
2020,04,10,00,29,7.30
2020,04,10,00,30,7.30
2020,04,10,00,31,7.30
2020,04,10,00,32,7.30
2020,04,10,00,33,7.30
2020,04,10,00,34,7.30
2020,04,10,00,35,7.30
2020,04,10,00,36,7.30
2020,04,10,00,37,7.30
2020,04,10,00,38,7.30
2020,04,10,00,39,7.30
2020,04,10,00,40,7.30
2020,04,10,00,41,7.30
2020,04,10,00,42,7.30
2020,04,10,00,43,7.30
2020,04,10,00,44,7.30
2020,04,10,00,45,7.20
2020,04,10,00,46,7.20
2020,04,10,00,47,7.20
2020,04,10,00,48,7.20
2020,04,10,00,49,7.20
2020,04,10,00,50,7.20
2020,04,10,00,51,7.20
2020,04,10,00,52,7.20
2020,04,10,00,53,7.10
2020,04,10,00,54,7.10
2020,04,10,00,55,7.10
2020,04,10,00,56,7.10
2020,04,10,00,57,7.00
2020,04,10,00,58,7.00
2020,04,10,00,59,7.00
2020,04,10,01,00,7.00
2020,04,10,01,01,7.00
2020,04,10,01,02,7.00
2020,04,10,01,03,6.90
2020,04,10,01,04,6.90
2020,04,10,01,05,6.90
2020,04,10,01,06,6.90
2020,04,10,01,07,6.90
2020,04,10,01,08,6.90
2020,04,10,01,09,6.90
2020,04,10,01,10,6.80
2020,04,10,01,11,6.80
2020,04,10,01,12,6.80
2020,04,10,01,13,6.80
2020,04,10,01,14,6.80
2020,04,10,01,15,6.80
2020,04,10,01,16,6.80
2020,04,10,01,17,6.80
2020,04,10,01,18,6.70
2020,04,10,01,19,6.70
2020,04,10,01,20,6.70
2020,04,10,01,21,6.70
2020,04,10,01,22,6.70
2020,04,10,01,23,6.60
2020,04,10,01,24,6.60
2020,04,10,01,25,6.60
2020,04,10,01,26,6.60
2020,04,10,01,27,6.60
2020,04,10,01,28,6.60
2020,04,10,01,29,6.60
2020,04,10,01,30,6.60
2020,04,10,01,31,6.60
2020,04,10,01,32,6.60
2020,04,10,01,33,6.60
2020,04,10,01,34,6.60
2020,04,10,01,35,6.60
2020,04,10,01,36,6.50
2020,04,10,01,37,6.50
2020,04,10,01,38,6.50
2020,04,10,01,39,6.40
2020,04,10,01,40,6.40
2020,04,10,01,41,6.40
2020,04,10,01,42,6.40
2020,04,10,01,43,6.40
2020,04,10,01,44,6.40
2020,04,10,01,45,6.40
2020,04,10,01,46,6.30
2020,04,10,01,47,6.30
2020,04,10,01,48,6.30
2020,04,10,01,49,6.30
2020,04,10,01,50,6.30
2020,04,10,01,51,6.30
2020,04,10,01,52,6.20
2020,04,10,01,53,6.20
2020,04,10,01,54,6.20
2020,04,10,01,55,6.20
2020,04,10,01,56,6.20
2020,04,10,01,57,6.20
2020,04,10,01,58,6.10
2020,04,10,01,59,6.10
2020,04,10,02,00,6.10
2020,04,10,02,01,6.10
2020,04,10,02,02,6.10
2020,04,10,02,03,6.10
2020,04,10,02,04,6.00
2020,04,10,02,05,6.00
2020,04,10,02,06,6.00
2020,04,10,02,07,6.00
2020,04,10,02,08,5.90
2020,04,10,02,09,5.90
2020,04,10,02,10,5.90
2020,04,10,02,11,5.90
2020,04,10,02,12,5.80
2020,04,10,02,13,5.80
2020,04,10,02,14,5.80
2020,04,10,02,15,5.80
2020,04,10,02,16,5.80
2020,04,10,02,17,5.80
2020,04,10,02,18,5.80
2020,04,10,02,19,5.80
2020,04,10,02,20,5.80
2020,04,10,02,21,5.80
2020,04,10,02,22,5.90
2020,04,10,02,23,5.80
2020,04,10,02,24,5.90
2020,04,10,02,25,5.80
2020,04,10,02,26,5.80
2020,04,10,02,27,5.80
2020,04,10,02,28,5.80
2020,04,10,02,29,5.80
2020,04,10,02,30,5.80
2020,04,10,02,31,5.80
2020,04,10,02,32,5.80
2020,04,10,02,33,5.80
2020,04,10,02,34,5.80
2020,04,10,02,35,5.80
2020,04,10,02,36,5.70
2020,04,10,02,37,5.70
2020,04,10,02,38,5.70
2020,04,10,02,39,5.70
2020,04,10,02,40,5.70
2020,04,10,02,41,5.70
2020,04,10,02,42,5.70
2020,04,10,02,43,5.70
2020,04,10,02,44,5.70
2020,04,10,02,45,5.60
2020,04,10,02,46,5.60
2020,04,10,02,47,5.60
2020,04,10,02,48,5.60
2020,04,10,02,49,5.60
2020,04,10,02,50,5.60
2020,04,10,02,51,5.50
2020,04,10,02,52,5.60
2020,04,10,02,53,5.60
2020,04,10,02,54,5.60
2020,04,10,02,55,5.60
2020,04,10,02,56,5.60
2020,04,10,02,57,5.70
2020,04,10,02,58,5.70
2020,04,10,02,59,5.60
2020,04,10,03,00,5.60
2020,04,10,03,01,5.60
2020,04,10,03,02,5.60
2020,04,10,03,03,5.60
2020,04,10,03,04,5.60
2020,04,10,03,05,5.60
2020,04,10,03,06,5.60
2020,04,10,03,07,5.60
2020,04,10,03,08,5.60
2020,04,10,03,09,5.60
2020,04,10,03,10,5.60
2020,04,10,03,11,5.50
2020,04,10,03,12,5.50
2020,04,10,03,13,5.50
2020,04,10,03,14,5.50
2020,04,10,03,15,5.50
2020,04,10,03,16,5.40
2020,04,10,03,17,5.40
2020,04,10,03,18,5.40
2020,04,10,03,19,5.40
2020,04,10,03,20,5.40
2020,04,10,03,21,5.40
2020,04,10,03,22,5.40
2020,04,10,03,23,5.50
2020,04,10,03,24,5.40
2020,04,10,03,25,5.40
2020,04,10,03,26,5.40
2020,04,10,03,27,5.40
2020,04,10,03,28,5.40
2020,04,10,03,29,5.40
2020,04,10,03,30,5.40
2020,04,10,03,31,5.40
2020,04,10,03,32,5.40
2020,04,10,03,33,5.30
2020,04,10,03,34,5.30
2020,04,10,03,35,5.30
2020,04,10,03,36,5.30
2020,04,10,03,37,5.20
2020,04,10,03,38,5.20
2020,04,10,03,39,5.20
2020,04,10,03,40,5.20
2020,04,10,03,41,5.20
2020,04,10,03,42,5.20
2020,04,10,03,43,5.20
2020,04,10,03,44,5.20
2020,04,10,03,45,5.20
2020,04,10,03,46,5.20
2020,04,10,03,47,5.20
2020,04,10,03,48,5.20
2020,04,10,03,49,5.20
2020,04,10,03,50,5.20
2020,04,10,03,51,5.20
2020,04,10,03,52,5.20
2020,04,10,03,53,5.20
2020,04,10,03,54,5.20
2020,04,10,03,55,5.20
2020,04,10,03,56,5.10
2020,04,10,03,57,5.10
2020,04,10,03,58,5.10
2020,04,10,03,59,5.10
2020,04,10,04,00,5.00
2020,04,10,04,01,5.00
2020,04,10,04,02,5.00
2020,04,10,04,03,5.00
2020,04,10,04,04,5.00
2020,04,10,04,05,5.00
2020,04,10,04,06,5.00
2020,04,10,04,07,5.00
2020,04,10,04,08,5.00
2020,04,10,04,09,4.90
2020,04,10,04,10,5.00
2020,04,10,04,11,4.90
2020,04,10,04,12,4.90
2020,04,10,04,13,4.90
2020,04,10,04,14,4.90
2020,04,10,04,15,4.90
2020,04,10,04,16,4.90
2020,04,10,04,17,4.90
2020,04,10,04,18,4.90
2020,04,10,04,19,4.90
2020,04,10,04,20,4.90
2020,04,10,04,21,4.80
2020,04,10,04,22,4.80
2020,04,10,04,23,4.80
2020,04,10,04,24,4.80
2020,04,10,04,25,4.90
2020,04,10,04,26,4.80
2020,04,10,04,27,4.80
2020,04,10,04,28,4.80
2020,04,10,04,29,4.80
2020,04,10,04,30,4.80
2020,04,10,04,31,4.80
2020,04,10,04,32,4.70
2020,04,10,04,33,4.70
2020,04,10,04,34,4.70
2020,04,10,04,35,4.70
2020,04,10,04,36,4.70
2020,04,10,04,37,4.70
2020,04,10,04,38,4.70
2020,04,10,04,39,4.70
2020,04,10,04,40,4.70
2020,04,10,04,41,4.70
2020,04,10,04,42,4.70
2020,04,10,04,43,4.70
2020,04,10,04,44,4.70
2020,04,10,04,45,4.70
2020,04,10,04,46,4.70
2020,04,10,04,47,4.70
2020,04,10,04,48,4.70
2020,04,10,04,49,4.70
2020,04,10,04,50,4.70
2020,04,10,04,51,4.70
2020,04,10,04,52,4.70
2020,04,10,04,53,4.70
2020,04,10,04,54,4.70
2020,04,10,04,55,4.70
2020,04,10,04,56,4.70
2020,04,10,04,57,4.70
2020,04,10,04,58,4.70
2020,04,10,04,59,4.60
2020,04,10,05,00,4.60
2020,04,10,05,01,4.60
2020,04,10,05,02,4.60
2020,04,10,05,03,4.60
2020,04,10,05,04,4.60
2020,04,10,05,05,4.60
2020,04,10,05,06,4.60
2020,04,10,05,07,4.60
2020,04,10,05,08,4.70
2020,04,10,05,09,4.70
2020,04,10,05,10,4.70
2020,04,10,05,11,4.70
2020,04,10,05,12,4.70
2020,04,10,05,13,4.70
2020,04,10,05,14,4.70
2020,04,10,05,15,4.70
2020,04,10,05,16,4.70
2020,04,10,05,17,4.60
2020,04,10,05,18,4.60
2020,04,10,05,19,4.70
2020,04,10,05,20,4.70
2020,04,10,05,21,4.70
2020,04,10,05,22,4.70
2020,04,10,05,23,4.70
2020,04,10,05,24,4.70
2020,04,10,05,25,4.70
2020,04,10,05,26,4.70
2020,04,10,05,27,4.70
2020,04,10,05,28,4.70
2020,04,10,05,29,4.70
2020,04,10,05,30,4.70
2020,04,10,05,31,4.70
2020,04,10,05,32,4.60
2020,04,10,05,33,4.60
2020,04,10,05,34,4.60
2020,04,10,05,35,4.60
2020,04,10,05,36,4.60
2020,04,10,05,37,4.50
2020,04,10,05,38,4.50
2020,04,10,05,39,4.50
2020,04,10,05,40,4.50
2020,04,10,05,41,4.40
2020,04,10,05,42,4.50
2020,04,10,05,43,4.40
2020,04,10,05,44,4.40
2020,04,10,05,45,4.40
2020,04,10,05,46,4.40
2020,04,10,05,47,4.40
2020,04,10,05,48,4.40
2020,04,10,05,49,4.40
2020,04,10,05,50,4.40
2020,04,10,05,51,4.40
2020,04,10,05,52,4.40
2020,04,10,05,53,4.40
2020,04,10,05,54,4.30
2020,04,10,05,55,4.30
2020,04,10,05,56,4.30
2020,04,10,05,57,4.30
2020,04,10,05,58,4.30
2020,04,10,05,59,4.30
2020,04,10,06,00,4.30
2020,04,10,06,01,4.30
2020,04,10,06,02,4.30
2020,04,10,06,03,4.30
2020,04,10,06,04,4.30
2020,04,10,06,05,4.30
2020,04,10,06,06,4.30
2020,04,10,06,07,4.30
2020,04,10,06,08,4.20
2020,04,10,06,09,4.20
2020,04,10,06,10,4.20
2020,04,10,06,11,4.20
2020,04,10,06,12,4.20
2020,04,10,06,13,4.20
2020,04,10,06,14,4.20
2020,04,10,06,15,4.20
2020,04,10,06,16,4.20
2020,04,10,06,17,4.20
2020,04,10,06,18,4.20
2020,04,10,06,19,4.10
2020,04,10,06,20,4.10
2020,04,10,06,21,4.10
2020,04,10,06,22,4.10
2020,04,10,06,23,4.10
2020,04,10,06,24,4.10
2020,04,10,06,25,4.10
2020,04,10,06,26,4.10
2020,04,10,06,27,4.10
2020,04,10,06,28,4.10
2020,04,10,06,29,4.10
2020,04,10,06,30,4.00
2020,04,10,06,31,4.00
2020,04,10,06,32,4.00
2020,04,10,06,33,4.00
2020,04,10,06,34,4.00
2020,04,10,06,35,4.00
2020,04,10,06,36,4.00
2020,04,10,06,37,4.00
2020,04,10,06,38,4.00
2020,04,10,06,39,4.00
2020,04,10,06,40,4.00
2020,04,10,06,41,4.00
2020,04,10,06,42,4.00
2020,04,10,06,43,4.00
2020,04,10,06,44,4.00
2020,04,10,06,45,4.00
2020,04,10,06,46,4.00
2020,04,10,06,47,3.90
2020,04,10,06,48,4.00
2020,04,10,06,49,3.90
2020,04,10,06,50,3.90
2020,04,10,06,51,3.90
2020,04,10,06,52,3.90
2020,04,10,06,53,4.00
2020,04,10,06,54,3.90
2020,04,10,06,55,4.00
2020,04,10,06,56,4.00
2020,04,10,06,57,4.00
2020,04,10,06,58,4.00
2020,04,10,06,59,4.00
2020,04,10,07,00,4.00
2020,04,10,07,01,4.00
2020,04,10,07,02,4.00
2020,04,10,07,03,4.00
2020,04,10,07,04,4.00
2020,04,10,07,05,4.00
2020,04,10,07,06,4.00
2020,04,10,07,07,4.10
2020,04,10,07,08,4.10
2020,04,10,07,09,4.10
2020,04,10,07,10,4.10
2020,04,10,07,11,4.10
2020,04,10,07,12,4.10
2020,04,10,07,13,4.10
2020,04,10,07,14,4.10
2020,04,10,07,15,4.10
2020,04,10,07,16,4.20
2020,04,10,07,17,4.20
2020,04,10,07,18,4.20
2020,04,10,07,19,4.20
2020,04,10,07,20,4.20
2020,04,10,07,21,4.20
2020,04,10,07,22,4.30
2020,04,10,07,23,4.30
2020,04,10,07,24,4.40
2020,04,10,07,25,4.40
2020,04,10,07,26,4.50
2020,04,10,07,27,4.50
2020,04,10,07,28,4.60
2020,04,10,07,29,4.60
2020,04,10,07,30,4.60
2020,04,10,07,31,4.60
2020,04,10,07,32,4.60
2020,04,10,07,33,4.60
2020,04,10,07,34,4.60
2020,04,10,07,35,4.60
2020,04,10,07,36,4.60
2020,04,10,07,37,4.60
2020,04,10,07,38,4.60
2020,04,10,07,39,4.70
2020,04,10,07,40,4.70
2020,04,10,07,41,4.70
2020,04,10,07,42,4.70
2020,04,10,07,43,4.70
2020,04,10,07,44,4.80
2020,04,10,07,45,4.80
2020,04,10,07,46,4.90
2020,04,10,07,47,5.00
2020,04,10,07,48,5.10
2020,04,10,07,49,5.20
2020,04,10,07,50,5.30
2020,04,10,07,51,5.30
2020,04,10,07,52,5.40
2020,04,10,07,53,5.50
2020,04,10,07,54,5.60
2020,04,10,07,55,5.70
2020,04,10,07,56,5.80
2020,04,10,07,57,5.90
2020,04,10,07,58,6.00
2020,04,10,07,59,6.10
2020,04,10,08,00,6.20
2020,04,10,08,01,6.30
2020,04,10,08,02,6.50
2020,04,10,08,03,6.60
2020,04,10,08,04,6.80
2020,04,10,08,05,6.90
2020,04,10,08,06,7.00
2020,04,10,08,07,7.10
2020,04,10,08,08,7.20
2020,04,10,08,09,7.30
2020,04,10,08,10,7.40
2020,04,10,08,11,7.50
2020,04,10,08,12,7.60
2020,04,10,08,13,7.70
2020,04,10,08,14,7.90
2020,04,10,08,15,8.10
2020,04,10,08,16,8.20
2020,04,10,08,17,8.40
2020,04,10,08,18,8.50
2020,04,10,08,19,8.70
2020,04,10,08,20,8.80
2020,04,10,08,21,9.00
2020,04,10,08,22,9.10
2020,04,10,08,23,9.20
2020,04,10,08,24,9.20
2020,04,10,08,25,9.30
2020,04,10,08,26,9.40
2020,04,10,08,27,9.50
2020,04,10,08,28,9.60
2020,04,10,08,29,9.80
2020,04,10,08,30,9.90
2020,04,10,08,31,10.10
2020,04,10,08,32,10.20
2020,04,10,08,33,10.40
2020,04,10,08,34,10.50
2020,04,10,08,35,10.70
2020,04,10,08,36,10.80
2020,04,10,08,37,11.00
2020,04,10,08,38,11.20
2020,04,10,08,39,11.30
2020,04,10,08,40,11.50
2020,04,10,08,41,11.60
2020,04,10,08,42,11.70
2020,04,10,08,43,11.80
2020,04,10,08,44,11.90
2020,04,10,08,45,12.00
2020,04,10,08,46,12.10
2020,04,10,08,47,12.20
2020,04,10,08,48,12.30
2020,04,10,08,49,12.30
2020,04,10,08,50,12.40
2020,04,10,08,51,12.50
2020,04,10,08,52,12.50
2020,04,10,08,53,12.50
2020,04,10,08,54,12.50
2020,04,10,08,55,12.50
2020,04,10,08,56,12.60
2020,04,10,08,57,12.60
2020,04,10,08,58,12.70
2020,04,10,08,59,12.80
2020,04,10,09,00,12.90
2020,04,10,09,01,13.00
2020,04,10,09,02,13.10
2020,04,10,09,03,13.20
2020,04,10,09,04,13.30
2020,04,10,09,05,13.30
2020,04,10,09,06,13.30
2020,04,10,09,07,13.40
2020,04,10,09,08,13.50
2020,04,10,09,09,13.50
2020,04,10,09,10,13.50
2020,04,10,09,11,13.60
2020,04,10,09,12,13.60
2020,04,10,09,13,13.60
2020,04,10,09,14,13.60
2020,04,10,09,15,13.50
2020,04,10,09,16,13.50
2020,04,10,09,17,13.50
2020,04,10,09,18,13.50
2020,04,10,09,19,13.50
2020,04,10,09,20,13.60
2020,04,10,09,21,13.70
2020,04,10,09,22,13.70
2020,04,10,09,23,13.80
2020,04,10,09,24,13.90
2020,04,10,09,25,14.00
2020,04,10,09,26,14.00
2020,04,10,09,27,14.00
2020,04,10,09,28,13.90
2020,04,10,09,29,13.80
2020,04,10,09,30,13.60
2020,04,10,09,31,13.50
2020,04,10,09,32,13.40
2020,04,10,09,33,13.30
2020,04,10,09,34,13.30
2020,04,10,09,35,13.30
2020,04,10,09,36,13.50
2020,04,10,09,37,13.60
2020,04,10,09,38,13.60
2020,04,10,09,39,13.60
2020,04,10,09,40,13.70
2020,04,10,09,41,13.80
2020,04,10,09,42,13.80
2020,04,10,09,43,13.80
2020,04,10,09,44,13.80
2020,04,10,09,45,13.80
2020,04,10,09,46,13.90
2020,04,10,09,47,14.00
2020,04,10,09,48,14.10
2020,04,10,09,49,14.20
2020,04,10,09,50,14.20
2020,04,10,09,51,14.20
2020,04,10,09,52,14.30
2020,04,10,09,53,14.30
2020,04,10,09,54,14.20
2020,04,10,09,55,14.10
2020,04,10,09,56,14.00
2020,04,10,09,57,13.90
2020,04,10,09,58,14.00
2020,04,10,09,59,14.00
2020,04,10,10,00,14.00
2020,04,10,10,01,14.00
2020,04,10,10,02,14.10
2020,04,10,10,03,14.00
2020,04,10,10,04,14.00
2020,04,10,10,05,13.90
2020,04,10,10,06,13.90
2020,04,10,10,07,13.90
2020,04,10,10,08,14.10
2020,04,10,10,09,14.10
2020,04,10,10,10,14.30
2020,04,10,10,11,14.30
2020,04,10,10,12,14.40
2020,04,10,10,13,14.50
2020,04,10,10,14,14.60
2020,04,10,10,15,14.60
2020,04,10,10,16,14.60
2020,04,10,10,17,14.60
2020,04,10,10,18,14.70
2020,04,10,10,19,14.70
2020,04,10,10,20,14.60
2020,04,10,10,21,14.60
2020,04,10,10,22,14.60
2020,04,10,10,23,14.60
2020,04,10,10,24,14.60
2020,04,10,10,25,14.70
2020,04,10,10,26,14.80
2020,04,10,10,27,14.90
2020,04,10,10,28,15.00
2020,04,10,10,29,15.10
2020,04,10,10,30,15.20
2020,04,10,10,31,15.20
2020,04,10,10,32,15.20
2020,04,10,10,33,15.10
2020,04,10,10,34,14.90
2020,04,10,10,35,14.80
2020,04,10,10,36,14.80
2020,04,10,10,37,14.80
2020,04,10,10,38,14.60
2020,04,10,10,39,14.40
2020,04,10,10,40,14.30
2020,04,10,10,41,14.20
2020,04,10,10,42,14.20
2020,04,10,10,43,14.20
2020,04,10,10,44,14.10
2020,04,10,10,45,14.10
2020,04,10,10,46,14.10
2020,04,10,10,47,14.10
2020,04,10,10,48,14.10
2020,04,10,10,49,14.20
2020,04,10,10,50,14.30
2020,04,10,10,51,14.30
2020,04,10,10,52,14.50
2020,04,10,10,53,14.60
2020,04,10,10,54,14.70
2020,04,10,10,55,14.70
2020,04,10,10,56,14.80
2020,04,10,10,57,14.80
2020,04,10,10,58,14.70
2020,04,10,10,59,14.60
2020,04,10,11,00,14.50
2020,04,10,11,01,14.40
2020,04,10,11,02,14.30
2020,04,10,11,03,14.20
2020,04,10,11,04,14.20
2020,04,10,11,05,14.30
2020,04,10,11,06,14.20
2020,04,10,11,07,14.20
2020,04,10,11,08,14.10
2020,04,10,11,09,14.00
2020,04,10,11,10,14.00
2020,04,10,11,11,14.10
2020,04,10,11,12,14.20
2020,04,10,11,13,14.40
2020,04,10,11,14,14.50
2020,04,10,11,15,14.60
2020,04,10,11,16,14.60
2020,04,10,11,17,14.70
2020,04,10,11,18,14.70
2020,04,10,11,19,14.80
2020,04,10,11,20,14.80
2020,04,10,11,21,14.80
2020,04,10,11,22,14.90
2020,04,10,11,23,14.90
2020,04,10,11,24,15.10
2020,04,10,11,25,15.20
2020,04,10,11,26,15.40
2020,04,10,11,27,15.50
2020,04,10,11,28,15.60
2020,04,10,11,29,15.70
2020,04,10,11,30,15.80
2020,04,10,11,31,15.80
2020,04,10,11,32,15.70
2020,04,10,11,33,15.40
2020,04,10,11,34,15.20
2020,04,10,11,35,15.10
2020,04,10,11,36,15.10
2020,04,10,11,37,15.10
2020,04,10,11,38,15.20
2020,04,10,11,39,15.20
2020,04,10,11,40,15.10
2020,04,10,11,41,15.20
2020,04,10,11,42,15.30
2020,04,10,11,43,15.40
2020,04,10,11,44,15.50
2020,04,10,11,45,15.50
2020,04,10,11,46,15.60
2020,04,10,11,47,15.70
2020,04,10,11,48,15.60
2020,04,10,11,49,15.50
2020,04,10,11,50,15.40
2020,04,10,11,51,15.40
2020,04,10,11,52,15.40
2020,04,10,11,53,15.40
2020,04,10,11,54,15.40
2020,04,10,11,55,15.40
2020,04,10,11,56,15.60
2020,04,10,11,57,15.70
2020,04,10,11,58,15.60
2020,04,10,11,59,15.40
2020,04,10,12,00,15.40
2020,04,10,12,01,15.50
2020,04,10,12,02,15.60
2020,04,10,12,03,15.80
2020,04,10,12,04,15.90
2020,04,10,12,05,15.90
2020,04,10,12,06,15.90
2020,04,10,12,07,15.90
2020,04,10,12,08,15.70
2020,04,10,12,09,15.60
2020,04,10,12,10,15.60
2020,04,10,12,11,15.60
2020,04,10,12,12,15.70
2020,04,10,12,13,15.80
2020,04,10,12,14,15.90
2020,04,10,12,15,16.00
2020,04,10,12,16,16.10
2020,04,10,12,17,16.20
2020,04,10,12,18,16.20
2020,04,10,12,19,16.20
2020,04,10,12,20,16.20
2020,04,10,12,21,16.00
2020,04,10,12,22,15.70
2020,04,10,12,23,15.60
2020,04,10,12,24,15.50
2020,04,10,12,25,15.60
2020,04,10,12,26,15.70
2020,04,10,12,27,15.80
2020,04,10,12,28,15.80
2020,04,10,12,29,15.70
2020,04,10,12,30,15.50
2020,04,10,12,31,15.40
2020,04,10,12,32,15.40
2020,04,10,12,33,15.60
2020,04,10,12,34,15.70
2020,04,10,12,35,15.80
2020,04,10,12,36,15.90
2020,04,10,12,37,15.80
2020,04,10,12,38,15.80
2020,04,10,12,39,15.90
2020,04,10,12,40,15.90
2020,04,10,12,41,15.80
2020,04,10,12,42,15.90
2020,04,10,12,43,15.90
2020,04,10,12,44,15.90
2020,04,10,12,45,16.00
2020,04,10,12,46,16.10
2020,04,10,12,47,16.10
2020,04,10,12,48,16.10
2020,04,10,12,49,16.10
2020,04,10,12,50,16.10
2020,04,10,12,51,16.10
2020,04,10,12,52,16.10
2020,04,10,12,53,16.10
2020,04,10,12,54,16.20
2020,04,10,12,55,16.30
2020,04,10,12,56,16.30
2020,04,10,12,57,16.30
2020,04,10,12,58,16.30
2020,04,10,12,59,16.40
2020,04,10,13,00,16.40
2020,04,10,13,01,16.40
2020,04,10,13,02,16.40
2020,04,10,13,03,16.50
2020,04,10,13,04,16.50
2020,04,10,13,05,16.50
2020,04,10,13,06,16.60
2020,04,10,13,07,16.60
2020,04,10,13,08,16.50
2020,04,10,13,09,16.50
2020,04,10,13,10,16.40
2020,04,10,13,11,16.40
2020,04,10,13,12,16.50
2020,04,10,13,13,16.50
2020,04,10,13,14,16.50
2020,04,10,13,15,16.50
2020,04,10,13,16,16.50
2020,04,10,13,17,16.60
2020,04,10,13,18,16.70
2020,04,10,13,19,16.70
2020,04,10,13,20,16.70
2020,04,10,13,21,16.70
2020,04,10,13,22,16.70
2020,04,10,13,23,16.70
2020,04,10,13,24,16.70
2020,04,10,13,25,16.70
2020,04,10,13,26,16.80
2020,04,10,13,27,16.80
2020,04,10,13,28,16.70
2020,04,10,13,29,16.70
2020,04,10,13,30,16.70
2020,04,10,13,31,16.60
2020,04,10,13,32,16.60
2020,04,10,13,33,16.60
2020,04,10,13,34,16.60
2020,04,10,13,35,16.70
2020,04,10,13,36,16.60
2020,04,10,13,37,16.60
2020,04,10,13,38,16.70
2020,04,10,13,39,16.70
2020,04,10,13,40,16.90
2020,04,10,13,41,17.10
2020,04,10,13,42,17.30
2020,04,10,13,43,17.50
2020,04,10,13,44,17.70
2020,04,10,13,45,17.80
2020,04,10,13,46,17.50
2020,04,10,13,47,17.20
2020,04,10,13,48,17.20
2020,04,10,13,49,17.30
2020,04,10,13,50,17.30
2020,04,10,13,51,17.30
2020,04,10,13,52,17.20
2020,04,10,13,53,17.20
2020,04,10,13,54,17.20
2020,04,10,13,55,17.40
2020,04,10,13,56,17.50
2020,04,10,13,57,17.40
2020,04,10,13,58,17.30
2020,04,10,13,59,17.30
2020,04,10,14,00,17.30
2020,04,10,14,01,17.20
2020,04,10,14,02,17.20
2020,04,10,14,03,17.10
2020,04,10,14,04,16.90
2020,04,10,14,05,16.70
2020,04,10,14,06,16.60
2020,04,10,14,07,16.40
2020,04,10,14,08,16.30
2020,04,10,14,09,16.30
2020,04,10,14,10,16.40
2020,04,10,14,11,16.50
2020,04,10,14,12,16.70
2020,04,10,14,13,16.80
2020,04,10,14,14,16.90
2020,04,10,14,15,17.10
2020,04,10,14,16,17.20
2020,04,10,14,17,17.20
2020,04,10,14,18,17.00
2020,04,10,14,19,16.90
2020,04,10,14,20,16.90
2020,04,10,14,21,16.90
2020,04,10,14,22,17.00
2020,04,10,14,23,17.00
2020,04,10,14,24,16.90
2020,04,10,14,25,16.80
2020,04,10,14,26,16.80
2020,04,10,14,27,16.70
2020,04,10,14,28,16.60
2020,04,10,14,29,16.60
2020,04,10,14,30,16.70
2020,04,10,14,31,16.80
2020,04,10,14,32,16.70
2020,04,10,14,33,16.80
2020,04,10,14,34,16.80
2020,04,10,14,35,16.80
2020,04,10,14,36,16.70
2020,04,10,14,37,16.70
2020,04,10,14,38,16.70
2020,04,10,14,39,16.80
2020,04,10,14,40,16.80
2020,04,10,14,41,17.00
2020,04,10,14,42,17.00
2020,04,10,14,43,17.10
2020,04,10,14,44,17.10
2020,04,10,14,45,17.10
2020,04,10,14,46,17.20
2020,04,10,14,47,17.30
2020,04,10,14,48,17.40
2020,04,10,14,49,17.50
2020,04,10,14,50,17.40
2020,04,10,14,51,17.20
2020,04,10,14,52,17.00
2020,04,10,14,53,16.90
2020,04,10,14,54,16.90
2020,04,10,14,55,16.90
2020,04,10,14,56,16.90
2020,04,10,14,57,16.90
2020,04,10,14,58,16.80
2020,04,10,14,59,16.80
2020,04,10,15,00,16.70
2020,04,10,15,01,16.70
2020,04,10,15,02,16.70
2020,04,10,15,03,16.70
2020,04,10,15,04,16.80
2020,04,10,15,05,16.90
2020,04,10,15,06,17.10
2020,04,10,15,07,17.20
2020,04,10,15,08,17.30
2020,04,10,15,09,17.30
2020,04,10,15,10,17.30
2020,04,10,15,11,17.50
2020,04,10,15,12,17.40
2020,04,10,15,13,17.20
2020,04,10,15,14,17.10
2020,04,10,15,15,17.00
2020,04,10,15,16,17.00
2020,04,10,15,17,16.90
2020,04,10,15,18,16.90
2020,04,10,15,19,16.90
2020,04,10,15,20,17.00
2020,04,10,15,21,16.70
2020,04,10,15,22,16.70
2020,04,10,15,23,16.80
2020,04,10,15,24,16.80
2020,04,10,15,25,16.70
2020,04,10,15,26,16.70
2020,04,10,15,27,16.60
2020,04,10,15,28,16.50
2020,04,10,15,29,16.50
2020,04,10,15,30,16.40
2020,04,10,15,31,16.40
2020,04,10,15,32,16.30
2020,04,10,15,33,16.30
2020,04,10,15,34,16.30
2020,04,10,15,35,16.30
2020,04,10,15,36,16.30
2020,04,10,15,37,16.20
2020,04,10,15,38,16.20
2020,04,10,15,39,16.10
2020,04,10,15,40,16.10
2020,04,10,15,41,16.10
2020,04,10,15,42,16.10
2020,04,10,15,43,16.20
2020,04,10,15,44,16.10
2020,04,10,15,45,16.00
2020,04,10,15,46,15.80
2020,04,10,15,47,15.70
2020,04,10,15,48,15.70
2020,04,10,15,49,15.70
2020,04,10,15,50,15.80
2020,04,10,15,51,15.90
2020,04,10,15,52,16.00
2020,04,10,15,53,16.00
2020,04,10,15,54,16.00
2020,04,10,15,55,15.90
2020,04,10,15,56,15.80
2020,04,10,15,57,15.70
2020,04,10,15,58,15.70
2020,04,10,15,59,15.70
2020,04,10,16,00,15.70
2020,04,10,16,01,15.70
2020,04,10,16,02,15.60
2020,04,10,16,03,15.60
2020,04,10,16,04,15.70
2020,04,10,16,05,15.70
2020,04,10,16,06,15.70
2020,04,10,16,07,15.70
2020,04,10,16,08,15.70
2020,04,10,16,09,15.70
2020,04,10,16,10,15.70
2020,04,10,16,11,15.70
2020,04,10,16,12,15.70
2020,04,10,16,13,15.80
2020,04,10,16,14,15.80
2020,04,10,16,15,15.80
2020,04,10,16,16,15.80
2020,04,10,16,17,15.70
2020,04,10,16,18,15.60
2020,04,10,16,19,15.60
2020,04,10,16,20,15.40
2020,04,10,16,21,15.30
2020,04,10,16,22,15.30
2020,04,10,16,23,15.20
2020,04,10,16,24,15.20
2020,04,10,16,25,15.20
2020,04,10,16,26,15.20
2020,04,10,16,27,15.20
2020,04,10,16,28,15.20
2020,04,10,16,29,15.20
2020,04,10,16,30,15.20
2020,04,10,16,31,15.30
2020,04,10,16,32,15.30
2020,04,10,16,33,15.30
2020,04,10,16,34,15.30
2020,04,10,16,35,15.20
2020,04,10,16,36,15.20
2020,04,10,16,37,15.10
2020,04,10,16,38,15.10
2020,04,10,16,39,15.00
2020,04,10,16,40,15.00
2020,04,10,16,41,14.90
2020,04,10,16,42,14.80
2020,04,10,16,43,14.80
2020,04,10,16,44,14.80
2020,04,10,16,45,14.70
2020,04,10,16,46,14.70
2020,04,10,16,47,14.70
2020,04,10,16,48,14.70
2020,04,10,16,49,14.70
2020,04,10,16,50,14.70
2020,04,10,16,51,14.60
2020,04,10,16,52,14.70
2020,04,10,16,53,14.70
2020,04,10,16,54,14.70
2020,04,10,16,55,14.70
2020,04,10,16,56,14.70
2020,04,10,16,57,14.80
2020,04,10,16,58,14.80
2020,04,10,16,59,14.80
2020,04,10,17,00,14.90
2020,04,10,17,01,14.90
2020,04,10,17,02,15.00
2020,04,10,17,03,14.90
2020,04,10,17,04,14.90
2020,04,10,17,05,14.90
2020,04,10,17,06,14.90
2020,04,10,17,07,15.00
2020,04,10,17,08,15.00
2020,04,10,17,09,15.00
2020,04,10,17,10,15.10
2020,04,10,17,11,15.10
2020,04,10,17,12,15.10
2020,04,10,17,13,15.20
2020,04,10,17,14,15.20
2020,04,10,17,15,15.20
2020,04,10,17,16,15.20
2020,04,10,17,17,15.20
2020,04,10,17,18,15.20
2020,04,10,17,19,15.20
2020,04,10,17,20,15.20
2020,04,10,17,21,15.20
2020,04,10,17,22,15.20
2020,04,10,17,23,15.20
2020,04,10,17,24,15.20
2020,04,10,17,25,15.20
2020,04,10,17,26,15.20
2020,04,10,17,27,15.10
2020,04,10,17,28,15.00
2020,04,10,17,29,14.90
2020,04,10,17,30,14.80
2020,04,10,17,31,14.80
2020,04,10,17,32,14.80
2020,04,10,17,33,14.70
2020,04,10,17,34,14.60
2020,04,10,17,35,14.50
2020,04,10,17,36,14.40
2020,04,10,17,37,14.40
2020,04,10,17,38,14.40
2020,04,10,17,39,14.30
2020,04,10,17,40,14.30
2020,04,10,17,41,14.30